User: anonymous   Login
Location: Unspecified
(0.0000°N, 0.0000°E)
Time: 02:47:10
(UTC+02:00)
Language:

Ariane H10 - Orbit

View from above orbital plane
View from above orbital plane
View from above satellite
View from above satellite

Ground track
Ground track

The orbit data is extracted from the following two-line orbital elements,

1 21727U 91067B   17232.36715915 +.00000142 +00000-0 +77893-3 0  9998
2 21727 004.3117 309.1076 7192691 199.1397 105.0629 02.31952088179454
Epoch (UTC): 20 August 2017 08:48:42
Eccentricity: 0.7192691
inclination: 4.3117°
perigee height: 389 km
apogee height: 35067 km
right ascension of ascending node: 309.1076°
argument of perigee: 199.1397°
revolutions per day: 2.31952088
mean anomaly at epoch: 105.0629°
orbit number at epoch: 17945

The dashed part of the orbit path shows where the satellite is in the earth's shadow,  

DLR